Chicago DuPage, IL

9:47 AM CDT on March 25, 2017 (GMT -0500)
Du Page

Weather History for KDPA - March, 2012

Change the Weather History Date:

Saturday, March 3, 2012

  Actual Average Record
Temperature  
Mean Temperature 31 °F 33 °F  
Max Temperature 33 °F 42 °F 51 °F (2008)
Min Temperature 28 °F 24 °F -7 °F (2014)
Degree Days  
Heating Degree Days 34 32  
Month to date heating degree days 92 97  
Since 1 July heating degree days 4852  
Cooling Degree Days 0 0  
Month to date cooling degree days 0 0  
Year to date cooling degree days 0 0  
Moisture  
Dew Point 22 °F    
Average Humidity 73    
Maximum Humidity 80    
Minimum Humidity 67    
Precipitation  
Precipitation T in 0.08 in 0.30 in (2008)
Month to date precipitation 0.18 0.23  
Year to date precipitation 2.30 2.96  
Sea Level Pressure  
Sea Level Pressure 29.72 in    
Wind  
Wind Speed 16 mph (West)    
Max Wind Speed 28 mph    
Max Gust Speed 33 mph    
Visibility 8 miles    
Events Snow    
T = Trace of Precipitation, MM = Missing Value Source: NWS Daily Summary

Daily Weather History Graph

Daily Weather History Graph

Search for Another Location

Airport or City:

Trip Planner

Search our weather history database for the weather conditions in past years. The results will help you decide how hot, cold, wet, or windy it might be!

Date:

Astronomy

Mar. 03, 2012 Rise Set
Actual Time 6:23 AM CST 5:46 PM CST
Civil Twilight 5:56 AM CST 6:14 PM CST
Nautical Twilight 5:23 AM CST 6:46 PM CST
Astronomical Twilight 4:51 AM CST 7:18 PM CST
Moon 12:52 PM CST (3/3) 3:04 AM CST (3/3)
Length of Visible Light 12h 18m
Length of Day
11h 22m
Waxing Gibbous, 75% of the Moon is Illuminated
Mar 3
Waxing Gibbous
Mar 8
Full
Mar 14
Last Quarter
Mar 22
New
Mar 30
First Quarter

Hourly Weather History & Observations

Time (CST) Temp. Windchill Dew Point Humidity Pressure Visibility Wind Dir Wind Speed Gust Speed Precip Events Conditions
12:52 AM 32.0 °F 21.2 °F 24.1 °F 73% 29.62 in 10.0 mi West 16.1 mph 24.2 mph N/A   Overcast
1:22 AM 30.2 °F 18.1 °F 23.0 °F 75% 29.61 in 10.0 mi West 18.4 mph 25.3 mph N/A   Overcast
1:52 AM 30.9 °F 18.7 °F 23.0 °F 72% 29.62 in 10.0 mi West 19.6 mph - N/A   Overcast
2:52 AM 30.9 °F 18.1 °F 21.9 °F 69% 29.62 in 10.0 mi West 21.9 mph 26.5 mph N/A   Overcast
3:52 AM 30.0 °F 18.3 °F 21.9 °F 72% 29.63 in 10.0 mi West 17.3 mph - N/A   Overcast
4:03 AM 30.2 °F 18.9 °F 21.2 °F 69% 29.61 in 10.0 mi West 16.1 mph - N/A   Overcast
4:52 AM 30.0 °F 17.9 °F 23.0 °F 75% 29.64 in 10.0 mi West 18.4 mph 25.3 mph N/A   Overcast
5:52 AM 30.0 °F 19.1 °F 23.0 °F 75% 29.65 in 10.0 mi West 15.0 mph 25.3 mph N/A   Overcast
6:52 AM 30.0 °F 17.9 °F 21.9 °F 72% 29.66 in 10.0 mi WSW 18.4 mph 25.3 mph N/A   Overcast
7:52 AM 30.0 °F 18.3 °F 23.0 °F 75% 29.68 in 8.0 mi West 17.3 mph 28.8 mph N/A   Overcast
8:52 AM 30.0 °F 19.1 °F 23.0 °F 75% 29.70 in 7.0 mi WSW 15.0 mph 25.3 mph 0.00 in Snow Light Snow
9:11 AM 30.2 °F 18.1 °F 23.0 °F 75% 29.68 in 8.0 mi West 18.4 mph 26.5 mph N/A   Overcast
9:29 AM 30.2 °F 18.5 °F 23.0 °F 75% 29.68 in 9.0 mi West 17.3 mph 29.9 mph N/A   Overcast
9:52 AM 30.0 °F 17.9 °F 21.9 °F 72% 29.71 in 10.0 mi West 18.4 mph 29.9 mph N/A   Overcast
10:21 AM 30.2 °F 17.8 °F 21.2 °F 69% 29.70 in 10.0 mi West 19.6 mph 27.6 mph N/A   Overcast
10:52 AM 30.0 °F 15.7 °F 21.0 °F 69% 29.73 in 10.0 mi West 26.5 mph 33.4 mph N/A   Overcast
11:52 AM 30.9 °F 18.4 °F 21.0 °F 67% 29.73 in 10.0 mi West 20.7 mph 25.3 mph N/A   Mostly Cloudy
12:46 PM 30.2 °F 17.4 °F 21.2 °F 69% 29.71 in 2.5 mi WSW 20.7 mph 29.9 mph 0.00 in Snow Light Snow
12:52 PM 30.0 °F 17.5 °F 23.0 °F 75% 29.74 in 2.5 mi WSW 19.6 mph 29.9 mph 0.00 in Snow Light Snow
1:01 PM 30.2 °F 17.4 °F 23.0 °F 75% 29.71 in 3.0 mi WSW 20.7 mph 28.8 mph 0.00 in Snow Light Snow
1:31 PM 30.2 °F 17.8 °F 21.2 °F 69% 29.72 in 2.5 mi West 19.6 mph 28.8 mph 0.00 in Snow Light Snow
1:49 PM 28.4 °F 16.2 °F 21.2 °F 74% 29.72 in 1.5 mi West 17.3 mph - 0.00 in Snow Light Snow
2:02 PM 30.2 °F 18.9 °F 24.8 °F 80% 29.72 in 3.0 mi WSW 16.1 mph 24.2 mph 0.00 in Snow Light Snow
2:36 PM 30.2 °F 18.5 °F 21.2 °F 69% 29.73 in 7.0 mi West 17.3 mph 25.3 mph 0.00 in Snow Light Snow
2:52 PM 30.0 °F 19.5 °F 21.9 °F 72% 29.75 in 7.0 mi West 13.8 mph 27.6 mph 0.00 in Snow Light Snow
3:37 PM 30.2 °F 17.8 °F 23.0 °F 75% 29.74 in 10.0 mi West 19.6 mph 26.5 mph 0.00 in   Overcast
3:52 PM 30.9 °F 21.7 °F 23.0 °F 72% 29.77 in 9.0 mi West 11.5 mph 24.2 mph 0.00 in   Overcast
4:26 PM 30.2 °F 21.9 °F 23.0 °F 75% 29.76 in 7.0 mi West 9.2 mph - 0.00 in Snow Light Snow
4:52 PM 30.0 °F 18.3 °F 24.1 °F 79% 29.80 in 9.0 mi West 17.3 mph - 0.00 in   Overcast
5:03 PM 30.2 °F 19.8 °F 23.0 °F 75% 29.77 in 10.0 mi West 13.8 mph - N/A   Overcast
5:52 PM 30.0 °F 20.0 °F 23.0 °F 75% 29.82 in 10.0 mi West 12.7 mph - 0.00 in   Overcast
6:52 PM 30.0 °F 19.5 °F 21.0 °F 69% 29.83 in 10.0 mi West 13.8 mph - N/A   Overcast
7:52 PM 28.9 °F 19.8 °F 21.0 °F 72% 29.83 in 10.0 mi WNW 10.4 mph - N/A   Overcast
8:13 PM 28.4 °F 19.1 °F 21.2 °F 74% 29.81 in 10.0 mi West 10.4 mph - N/A   Overcast
8:52 PM 28.9 °F 18.6 °F 21.0 °F 72% 29.84 in 10.0 mi WNW 12.7 mph - N/A   Overcast
9:52 PM 28.9 °F 21.1 °F 21.0 °F 72% 29.84 in 10.0 mi WNW 8.1 mph - N/A   Overcast
10:52 PM 28.0 °F 19.3 °F 19.9 °F 72% 29.84 in 10.0 mi WNW 9.2 mph - N/A   Overcast
11:52 PM 28.0 °F 20.8 °F 19.9 °F 72% 29.83 in 10.0 mi WNW 6.9 mph - N/A   Overcast